TimeCST,TemperatureF,Dew PointF,Humidity,Sea Level PressureIn,VisibilityMPH,Wind Direction,Wind SpeedMPH,Gust SpeedMPH,PrecipitationIn,Events,Conditions,WindDirDegrees,DateUTC
12:15 AM,3.2,-0.4,85,30.10,7.0,Calm,Calm,-,N/A,,Clear,0,2013-03-03 06:15:00
12:35 AM,-0.4,-4.0,85,30.10,10.0,Calm,Calm,-,N/A,,Clear,0,2013-03-03 06:35:00
1:15 AM,-2.2,-5.8,85,30.10,10.0,Calm,Calm,-,N/A,,Clear,0,2013-03-03 07:15:00
1:35 AM,-2.2,-7.6,78,30.09,10.0,Calm,Calm,-,N/A,,Clear,0,2013-03-03 07:35:00
1:55 AM,-2.2,-7.6,78,30.08,10.0,Calm,Calm,-,N/A,,Clear,0,2013-03-03 07:55:00
2:15 AM,-5.8,-9.4,84,30.08,10.0,Calm,Calm,-,N/A,,Clear,0,2013-03-03 08:15:00
2:35 AM,-4.0,-9.4,78,30.09,10.0,Calm,Calm,-,N/A,,Clear,0,2013-03-03 08:35:00
2:55 AM,-5.8,-11.2,77,30.08,10.0,Calm,Calm,-,N/A,,Clear,0,2013-03-03 08:55:00
3:15 AM,-5.8,-11.2,77,30.08,10.0,Calm,Calm,-,N/A,,Clear,0,2013-03-03 09:15:00
3:35 AM,-7.6,-13.0,77,30.08,10.0,Calm,Calm,-,N/A,,Clear,0,2013-03-03 09:35:00
3:55 AM,-7.6,-13.0,77,30.09,10.0,Calm,Calm,-,N/A,,Clear,0,2013-03-03 09:55:00
4:15 AM,-7.6,-14.8,71,30.09,10.0,Calm,Calm,-,N/A,,Clear,0,2013-03-03 10:15:00
4:35 AM,-9.4,-14.8,77,30.10,10.0,Calm,Calm,-,N/A,,Clear,0,2013-03-03 10:35:00
4:55 AM,-9.4,-14.8,77,30.10,10.0,Calm,Calm,-,N/A,,Clear,0,2013-03-03 10:55:00
5:35 AM,-9.4,-14.8,77,30.10,7.0,Calm,Calm,-,N/A,,Clear,0,2013-03-03 11:35:00
5:55 AM,-11.2,-16.6,77,30.09,10.0,Calm,Calm,-,N/A,,Clear,0,2013-03-03 11:55:00
6:15 AM,-13.0,-18.4,77,30.09,10.0,Calm,Calm,-,N/A,,Clear,0,2013-03-03 12:15:00
6:35 AM,-13.0,-18.4,77,30.09,7.0,Calm,Calm,-,N/A,,Clear,0,2013-03-03 12:35:00
6:55 AM,-11.2,-16.6,77,30.09,7.0,Calm,Calm,-,N/A,,Clear,0,2013-03-03 12:55:00
7:15 AM,-11.2,-16.6,77,30.10,7.0,Calm,Calm,-,N/A,,Clear,0,2013-03-03 13:15:00
7:35 AM,-9.4,-14.8,77,30.10,10.0,Calm,Calm,-,N/A,,Clear,0,2013-03-03 13:35:00
7:55 AM,-7.6,-13.0,77,30.10,10.0,Calm,Calm,-,N/A,,Clear,0,2013-03-03 13:55:00
8:15 AM,-4.0,-7.6,85,30.09,10.0,Calm,Calm,-,N/A,,Clear,0,2013-03-03 14:15:00
8:35 AM,1.4,-4.0,78,30.10,10.0,Calm,Calm,-,N/A,,Clear,0,2013-03-03 14:35:00
8:55 AM,5.0,1.4,85,30.09,10.0,Calm,Calm,-,N/A,,Clear,0,2013-03-03 14:55:00
9:15 AM,10.4,5.0,79,30.09,10.0,Calm,Calm,-,N/A,,Clear,0,2013-03-03 15:15:00
9:55 AM,19.4,6.8,58,30.07,10.0,NE,3.5,-,N/A,,Clear,40,2013-03-03 15:55:00
10:15 AM,19.4,8.6,63,30.07,10.0,NE,6.9,-,N/A,,Clear,50,2013-03-03 16:15:00
10:35 AM,21.2,8.6,58,30.06,10.0,NNE,8.1,-,N/A,,Clear,30,2013-03-03 16:35:00
10:55 AM,21.2,8.6,58,30.06,10.0,ENE,8.1,-,N/A,,Clear,70,2013-03-03 16:55:00
11:15 AM,23.0,8.6,54,30.05,10.0,ENE,8.1,-,N/A,,Clear,70,2013-03-03 17:15:00
11:35 AM,23.0,6.8,50,30.05,10.0,ENE,6.9,-,N/A,,Clear,60,2013-03-03 17:35:00
11:55 AM,24.8,5.0,43,30.04,10.0,Calm,Calm,-,N/A,,Clear,0,2013-03-03 17:55:00
12:15 PM,26.6,5.0,40,30.03,10.0,ENE,3.5,-,N/A,,Clear,60,2013-03-03 18:15:00
12:35 PM,26.6,5.0,40,30.03,10.0,East,3.5,-,N/A,,Clear,90,2013-03-03 18:35:00
12:55 PM,26.6,3.2,37,30.02,10.0,Calm,Calm,-,N/A,,Clear,0,2013-03-03 18:55:00
1:15 PM,26.6,3.2,37,30.02,10.0,Calm,Calm,-,N/A,,Clear,0,2013-03-03 19:15:00
1:35 PM,28.4,3.2,34,30.01,10.0,Calm,Calm,-,N/A,,Clear,0,2013-03-03 19:35:00
1:55 PM,28.4,3.2,34,30.01,10.0,Calm,Calm,-,N/A,,Clear,0,2013-03-03 19:55:00
2:15 PM,30.2,1.4,29,30.01,10.0,Calm,Calm,-,N/A,,Clear,0,2013-03-03 20:15:00
3:15 PM,30.2,-0.4,27,30.01,10.0,NNE,3.5,-,N/A,,Clear,30,2013-03-03 21:15:00
3:35 PM,30.2,-0.4,27,30.01,10.0,North,5.8,-,N/A,,Clear,10,2013-03-03 21:35:00
3:55 PM,28.4,-2.2,27,30.00,10.0,NE,4.6,-,N/A,,Clear,40,2013-03-03 21:55:00
4:35 PM,28.4,1.4,31,30.00,10.0,NE,5.8,-,N/A,,Clear,50,2013-03-03 22:35:00
4:55 PM,28.4,1.4,31,30.01,10.0,ENE,5.8,-,N/A,,Clear,60,2013-03-03 22:55:00
5:15 PM,26.6,-0.4,31,30.01,10.0,NE,6.9,-,N/A,,Clear,40,2013-03-03 23:15:00
5:55 PM,26.6,1.4,34,30.01,10.0,Calm,Calm,-,N/A,,Clear,0,2013-03-03 23:55:00
6:15 PM,21.2,3.2,46,30.01,10.0,Calm,Calm,-,N/A,,Clear,0,2013-03-04 00:15:00
6:35 PM,19.4,3.2,49,30.02,10.0,Calm,Calm,-,N/A,,Clear,0,2013-03-04 00:35:00
6:55 PM,19.4,5.0,54,30.02,10.0,Calm,Calm,-,N/A,,Clear,0,2013-03-04 00:55:00
7:15 PM,19.4,5.0,54,30.02,10.0,Calm,Calm,-,N/A,,Clear,0,2013-03-04 01:15:00
7:35 PM,14.0,5.0,67,30.02,10.0,Calm,Calm,-,N/A,,Clear,0,2013-03-04 01:35:00
7:55 PM,14.0,3.2,62,30.02,10.0,NE,3.5,-,N/A,,Clear,40,2013-03-04 01:55:00
8:15 PM,10.4,1.4,67,30.03,10.0,Calm,Calm,-,N/A,,Clear,0,2013-03-04 02:15:00
8:35 PM,14.0,3.2,62,30.03,10.0,Calm,Calm,-,N/A,,Clear,0,2013-03-04 02:35:00
8:55 PM,10.4,3.2,73,30.04,10.0,Calm,Calm,-,N/A,,Clear,0,2013-03-04 02:55:00
9:15 PM,8.6,1.4,73,30.04,10.0,Calm,Calm,-,N/A,,Clear,0,2013-03-04 03:15:00
9:35 PM,8.6,3.2,79,30.04,10.0,Calm,Calm,-,N/A,,Clear,0,2013-03-04 03:35:00
9:55 PM,8.6,1.4,73,30.04,10.0,Calm,Calm,-,N/A,,Clear,0,2013-03-04 03:55:00
10:15 PM,8.6,1.4,73,30.04,10.0,Calm,Calm,-,N/A,,Clear,0,2013-03-04 04:15:00
10:35 PM,6.8,1.4,79,30.03,10.0,Calm,Calm,-,N/A,,Clear,0,2013-03-04 04:35:00
10:55 PM,5.0,-0.4,78,30.04,10.0,Calm,Calm,-,N/A,,Clear,0,2013-03-04 04:55:00
11:15 PM,5.0,-0.4,78,30.04,10.0,Calm,Calm,-,N/A,,Clear,0,2013-03-04 05:15:00
11:35 PM,3.2,-0.4,85,30.04,10.0,Calm,Calm,-,N/A,,Clear,0,2013-03-04 05:35:00
11:55 PM,1.4,-4.0,78,30.04,10.0,Calm,Calm,-,N/A,,Clear,0,2013-03-04 05:55:00